| time (UTC) | temp F | wind direction | speed knots | gust knots | rain 1hr in | rain 24hr in | rain mn in | humidity % | barometer mb |
| 20260505173002 | 75 | 232 | 6.1 | 17.4 | 0.01 | 0.07 | 0.04 | 38 | 1005.6 |
| 20260505171559 | 74 | 230 | 3.5 | 13.9 | 0.01 | 0.07 | 0.04 | 42 | 1005.8 |
| 20260505170057 | 74 | 101 | 0.9 | 13.0 | 0.00 | 0.06 | 0.03 | 43 | 1006.2 |
| 20260505164600 | 74 | 254 | 2.6 | 15.6 | 0.00 | 0.06 | 0.03 | 41 | 1006.4 |
| 20260505163050 | 73 | 306 | 6.1 | 16.5 | 0.00 | 0.06 | 0.03 | 41 | 1006.5 |
| 20260505161554 | 72 | 223 | 2.6 | 20.0 | 0.00 | 0.06 | 0.03 | 43 | 1006.8 |
| 20260505153045 | 71 | 165 | 3.5 | 13.0 | 0.01 | 0.06 | 0.03 | 45 | 1007.4 |
| 20260505151538 | 71 | 278 | 5.2 | 10.4 | 0.01 | 0.06 | 0.03 | 45 | 1007.5 |
| 20260505124505 | 58 | 224 | 0.0 | 0.9 | 0.00 | 0.04 | 0.01 | 56 | 1008.9 |
| 20260505123006 | 58 | 275 | 0.0 | 2.6 | 0.00 | 0.04 | 0.01 | 57 | 1009.0 |
| 20260505121503 | 58 | 124 | 0.0 | 0.0 | 0.00 | 0.04 | 0.01 | 56 | 1009.1 |
| 20260505120108 | 58 | 217 | 0.0 | 0.0 | 0.00 | 0.04 | 0.01 | 58 | 1008.9 |
| 20260505114558 | 57 | 112 | 0.0 | 0.0 | 0.00 | 0.04 | 0.01 | 59 | 1008.9 |
| 20260505113112 | 56 | 213 | 0.0 | 0.0 | 0.00 | 0.04 | 0.01 | 60 | 1009.1 |
| 20260505111553 | 56 | 184 | 0.0 | 0.0 | 0.00 | 0.04 | 0.01 | 61 | 1009.2 |
| 20260505101543 | 48 | 326 | 0.0 | 0.0 | 0.00 | 0.04 | 0.01 | 72 | 1009.1 |
| 20260505100042 | 49 | 326 | 0.0 | 0.0 | 0.00 | 0.04 | 0.01 | 71 | 1009.2 |
| 20260505094541 | 49 | 323 | 0.0 | 0.0 | 0.00 | 0.04 | 0.01 | 67 | 1009.4 |
| 20260505093042 | 50 | 302 | 0.0 | 0.0 | 0.01 | 0.04 | 0.01 | 67 | 1009.4 |
| 20260505091540 | 50 | 335 | 0.0 | 0.0 | 0.01 | 0.04 | 0.01 | 68 | 1009.3 |
| 20260505090039 | 50 | 326 | 0.0 | 0.0 | 0.01 | 0.04 | 0.01 | 68 | 1009.2 |
| 20260505084545 | 49 | 338 | 0.0 | 4.3 | 0.01 | 0.04 | 0.01 | 67 | 1009.6 |
| 20260505083042 | 49 | 344 | 0.0 | 0.0 | 0.00 | 0.03 | 0.00 | 68 | 1009.8 |
| 20260505081535 | 48 | 329 | 0.0 | 0.0 | 0.00 | 0.03 | 0.00 | 69 | 1009.9 |
| 20260505080037 | 47 | 312 | 0.0 | 0.0 | 0.00 | 0.03 | 0.00 | 70 | 1010.1 |
| 20260505074532 | 49 | 332 | 0.0 | 0.0 | 0.00 | 0.03 | 0.00 | 66 | 1009.9 |
| 20260505073033 | 50 | 334 | 0.0 | 0.9 | 0.00 | 0.03 | 0.00 | 64 | 1009.8 |
| 20260505071530 | 50 | 345 | 0.0 | 0.9 | 0.00 | 0.03 | 0.00 | 65 | 1009.9 |
| 20260505070040 | 50 | 337 | 0.0 | 0.0 | 0.00 | 0.03 | 0.00 | 65 | 1009.9 |
| 20260505064529 | 50 | 351 | 0.0 | 0.0 | 0.00 | 0.03 | 0.00 | 64 | 1010.1 |
| 20260505063032 | 50 | 21 | 0.0 | 0.0 | 0.00 | 0.03 | 0.00 | 65 | 1010.2 |
| 20260505061526 | 49 | 328 | 0.0 | 0.0 | 0.00 | 0.03 | 0.00 | 65 | 1010.1 |
| 20260505060034 | 50 | 324 | 0.0 | 0.0 | 0.00 | 0.03 | 0.00 | 64 | 1010.1 |
| 20260505054525 | 51 | 338 | 0.0 | 0.0 | 0.00 | 0.03 | 0.00 | 62 | 1010.1 |
| 20260505053022 | 51 | 345 | 0.0 | 0.0 | 0.00 | 0.03 | 0.00 | 61 | 1010.1 |
| 20260505051522 | 50 | 323 | 0.0 | 0.0 | 0.00 | 0.03 | 0.00 | 63 | 1010.0 |
| 20260505041515 | 50 | 334 | 0.0 | 0.0 | 0.01 | 0.03 | 0.00 | 63 | 1009.9 |
| 20260505040012 | 50 | 330 | 0.0 | 0.0 | 0.01 | 0.03 | 0.03 | 63 | 1009.7 |
| 20260505034511 | 50 | 326 | 0.0 | 0.0 | 0.01 | 0.03 | 0.03 | 64 | 1009.6 |
| 20260505033010 | 50 | 323 | 0.0 | 0.0 | 0.00 | 0.02 | 0.02 | 63 | 1009.4 |
| 20260505031512 | 50 | 323 | 0.0 | 0.0 | 0.00 | 0.02 | 0.02 | 64 | 1009.4 |
| 20260505030009 | 51 | 332 | 0.0 | 0.0 | 0.00 | 0.02 | 0.02 | 61 | 1009.3 |
| 20260505024510 | 52 | 337 | 0.0 | 0.0 | 0.00 | 0.02 | 0.02 | 58 | 1009.4 |
| 20260505023007 | 51 | 319 | 0.0 | 0.0 | 0.00 | 0.02 | 0.02 | 60 | 1009.6 |
| 20260505021507 | 54 | 326 | 0.0 | 0.0 | 0.00 | 0.02 | 0.02 | 54 | 1009.7 |
| 20260505020012 | 54 | 333 | 0.0 | 0.9 | 0.00 | 0.02 | 0.02 | 55 | 1009.7 |
| 20260505014507 | 54 | 335 | 0.0 | 0.0 | 0.00 | 0.02 | 0.02 | 54 | 1009.7 |
| 20260505013005 | 54 | 25 | 0.0 | 0.9 | 0.00 | 0.02 | 0.02 | 54 | 1009.5 |
| 20260505011505 | 54 | 328 | 0.0 | 0.0 | 0.00 | 0.02 | 0.02 | 55 | 1009.4 |
| 20260505010013 | 55 | 340 | 0.0 | 0.9 | 0.00 | 0.02 | 0.02 | 56 | 1009.2 |
| 20260505004506 | 55 | 356 | 0.0 | 0.0 | 0.00 | 0.02 | 0.02 | 53 | 1008.9 |
| 20260505003002 | 56 | 328 | 0.0 | 0.0 | 0.00 | 0.02 | 0.02 | 51 | 1008.7 |
| 20260505001502 | 58 | 352 | 0.0 | 0.0 | 0.00 | 0.02 | 0.02 | 46 | 1008.4 |
| 20260505000002 | 58 | 309 | 0.0 | 0.0 | 0.00 | 0.02 | 0.02 | 46 | 1008.3 |
| 20260504234501 | 59 | 283 | 0.0 | 0.0 | 0.00 | 0.02 | 0.02 | 45 | 1008.1 |
| 20260504233113 | 59 | 257 | 0.0 | 0.9 | 0.00 | 0.02 | 0.02 | 45 | 1007.9 |
| 20260504231600 | 59 | 314 | 0.9 | 3.5 | 0.00 | 0.02 | 0.02 | 45 | 1007.7 |
| 20260504230100 | 59 | 280 | 0.0 | 0.0 | 0.00 | 0.02 | 0.02 | 45 | 1007.6 |
| 20260504224559 | 61 | 171 | 0.0 | 9.6 | 0.00 | 0.02 | 0.02 | 44 | 1007.6 |
| 20260504223058 | 61 | 290 | 0.0 | 7.0 | 0.00 | 0.02 | 0.02 | 43 | 1007.4 |
| 20260504221558 | 61 | 306 | 0.0 | 7.0 | 0.00 | 0.02 | 0.02 | 42 | 1007.2 |
| 20260504220058 | 62 | 243 | 3.5 | 9.6 | 0.00 | 0.02 | 0.02 | 41 | 1007.3 |
| 20260504214606 | 63 | 276 | 0.0 | 7.0 | 0.00 | 0.02 | 0.02 | 41 | 1007.3 |
| 20260504213054 | 62 | 245 | 5.2 | 14.8 | 0.00 | 0.02 | 0.02 | 42 | 1007.3 |
| 20260504211554 | 62 | 235 | 5.2 | 13.9 | 0.00 | 0.02 | 0.02 | 42 | 1007.3 |
| 20260504210055 | 62 | 206 | 0.9 | 13.0 | 0.00 | 0.02 | 0.02 | 43 | 1007.3 |
| 20260504204554 | 62 | 271 | 5.2 | 12.2 | 0.00 | 0.02 | 0.02 | 44 | 1007.3 |
| 20260504203055 | 62 | 172 | 4.3 | 13.9 | 0.00 | 0.02 | 0.02 | 45 | 1007.3 |
| 20260504201547 | 62 | 217 | 0.9 | 7.8 | 0.00 | 0.02 | 0.02 | 45 | 1007.2 |
| 20260504200045 | 61 | 121 | 0.9 | 10.4 | 0.00 | 0.02 | 0.02 | 47 | 1007.5 |
| 20260504194547 | 60 | 318 | 1.7 | 6.1 | 0.00 | 0.02 | 0.02 | 49 | 1007.5 |
| 20260504193040 | 60 | 68 | 0.0 | 0.9 | 0.01 | 0.02 | 0.02 | 53 | 1007.7 |
| 20260504191542 | 58 | 102 | 0.0 | 9.6 | 0.01 | 0.02 | 0.02 | 53 | 1007.9 |
| 20260504190038 | 57 | 179 | 0.9 | 9.6 | 0.02 | 0.02 | 0.02 | 56 | 1008.1 |
| 20260504184535 | 57 | 207 | 2.6 | 9.6 | 0.02 | 0.02 | 0.02 | 56 | 1007.8 |
| 20260504183032 | 57 | 199 | 0.0 | 4.3 | 0.01 | 0.01 | 0.01 | 58 | 1008.0 |
| 20260504181530 | 56 | 290 | 0.9 | 8.7 | 0.01 | 0.01 | 0.01 | 61 | 1008.2 |
| 20260504180029 | 55 | 236 | 0.0 | 4.3 | 0.00 | 0.00 | 0.00 | 62 | 1008.2 |
| 20260504174526 | 54 | 255 | 1.7 | 8.7 | 0.00 | 0.00 | 0.00 | 66 | 1008.4 |